EW0592 Weather Reports


time (UTC)temp
C
wind
direction
speed
KPH
gust
KPH
rain 1hr
cm
rain 24hr
cm
rain mn
cm
humidity
%
barometer
mb
20260509233009 21 305 6.4 25.7 0.00 0.00 0.00 32 1004.2
20260509231508 21 316 11.3 24.1 0.00 0.00 0.00 30 1004.0
20260509230008 21 319 17.7 29.0 0.00 0.00 0.00 30 1003.9
20260509224507 22 293 12.9 25.7 0.00 0.00 0.00 30 1003.6
20260509223006 22 318 12.9 30.6 0.00 0.00 0.00 29 1003.5
20260509221506 22 295 12.9 32.2 0.00 0.00 0.00 30 1003.3
20260509220005 22 311 12.9 32.2 0.00 0.00 0.00 29 1002.9
20260509214504 23 303 14.5 25.7 0.00 0.00 0.00 28 1002.7
20260509213005 23 262 8.0 30.6 0.00 0.00 0.00 31 1002.5
20260509211503 23 293 16.1 30.6 0.00 0.00 0.00 30 1002.2
20260509210002 23 279 12.9 29.0 0.00 0.00 0.00 30 1002.0
20260509204605 23 246 8.0 29.0 0.00 0.00 0.00 31 1002.1
20260509203159 22 248 19.3 32.2 0.00 0.00 0.00 29 1002.1
20260509201600 22 285 12.9 29.0 0.00 0.00 0.00 30 1002.3
20260509200058 22 305 11.3 22.5 0.00 0.00 0.00 31 1002.5
20260509194558 22 300 16.1 27.4 0.00 0.00 0.00 30 1002.5
20260509193059 22 255 8.0 22.5 0.00 0.00 0.00 30 1002.4
20260509191606 22 281 9.7 22.5 0.00 0.00 0.00 29 1002.4
20260509190100 22 274 8.0 20.9 0.00 0.00 0.00 29 1002.3
20260509184554 23 275 8.0 17.7 0.00 0.00 0.00 29 1002.3
20260509183050 22 241 9.7 17.7 0.00 0.00 0.00 31 1002.2
20260509181555 21 280 4.8 20.9 0.00 0.00 0.00 33 1002.4
20260509180047 21 273 9.7 17.7 0.00 0.00 0.00 31 1002.5
20260509174556 21 277 11.3 25.7 0.00 0.00 0.00 31 1002.6
20260509173052 21 310 11.3 29.0 0.00 0.00 0.00 31 1002.7
20260509171550 21 269 12.9 32.2 0.00 0.00 0.00 33 1002.6
20260509170044 21 278 4.8 14.5 0.00 0.00 0.00 47 1002.7
20260509164537 20 287 8.0 17.7 0.00 0.00 0.00 52 1002.7
20260509163034 19 280 8.0 22.5 0.00 0.00 0.00 53 1002.7
20260509161532 18 252 4.8 19.3 0.00 0.00 0.00 53 1002.8
20260509160032 18 301 4.8 16.1 0.00 0.00 0.00 57 1002.6
20260509154532 18 284 3.2 12.9 0.00 0.00 0.00 59 1002.7
20260509153029 17 262 4.8 19.3 0.00 0.00 0.00 60 1002.6
20260509151523 17 265 8.0 12.9 0.00 0.00 0.00 61 1002.6
20260509150022 17 257 9.7 19.3 0.00 0.00 0.00 63 1002.7
20260509144517 16 268 9.7 24.1 0.00 0.00 0.00 65 1002.6
20260509143020 16 251 9.7 20.9 0.00 0.00 0.00 67 1002.6
20260509141514 15 264 6.4 14.5 0.00 0.00 0.00 68 1002.5
20260509140010 15 277 9.7 20.9 0.00 0.00 0.00 70 1002.5
20260509134507 15 286 4.8 17.7 0.00 0.00 0.00 72 1002.3
20260509133004 14 275 4.8 16.1 0.00 0.00 0.00 74 1002.3
20260509131603 13 278 8.0 25.7 0.00 0.00 0.00 75 1002.7
20260509130108 13 268 8.0 19.3 0.00 0.00 0.00 76 1002.6
20260509124611 13 260 3.2 14.5 0.00 0.00 0.00 77 1002.5
20260509123059 12 264 6.4 16.1 0.00 0.00 0.00 78 1002.6
20260509121612 12 259 8.0 24.1 0.00 0.00 0.00 79 1002.4
20260509120057 12 273 4.8 14.5 0.00 0.00 0.00 80 1002.6
20260509114556 12 257 6.4 16.1 0.00 0.00 0.00 81 1002.4
20260509113058 12 233 3.2 12.9 0.00 0.00 0.00 81 1002.2
20260509111603 12 223 4.8 11.3 0.00 0.00 0.00 81 1002.2
20260509110054 12 283 6.4 16.1 0.00 0.00 0.00 80 1002.1
20260509104552 12 248 6.4 14.5 0.00 0.03 0.00 80 1001.9
20260509101550 12 212 6.4 12.9 0.00 0.03 0.00 81 1001.8
20260509100044 11 251 3.2 9.7 0.00 0.03 0.00 81 1002.1
20260509094543 12 207 3.2 9.7 0.00 0.03 0.00 81 1002.3
20260509093041 11 250 1.6 8.0 0.00 0.03 0.00 82 1002.6
20260509091540 11 260 3.2 11.3 0.00 0.03 0.00 82 1002.7
20260509090044 11 212 4.8 11.3 0.00 0.03 0.00 82 1002.5
20260509084542 11 278 3.2 9.7 0.00 0.03 0.00 82 1002.7
20260509083046 11 255 1.6 12.9 0.00 0.03 0.00 81 1002.7
20260509081535 11 222 3.2 14.5 0.00 0.03 0.00 81 1002.6
20260509080034 12 224 4.8 14.5 0.00 0.03 0.00 80 1002.6
20260509074532 12 239 3.2 12.9 0.00 0.03 0.00 80 1002.7
20260509073029 12 259 3.2 11.3 0.00 0.03 0.00 79 1002.9
20260509071526 12 260 1.6 9.7 0.00 0.03 0.00 78 1003.1
20260509070025 12 276 3.2 12.9 0.00 0.03 0.00 77 1003.4
20260509064522 12 194 4.8 12.9 0.00 0.03 0.00 77 1003.5
20260509063021 12 257 4.8 14.5 0.00 0.03 0.00 76 1003.7
20260509061522 13 228 3.2 17.7 0.00 0.03 0.00 76 1003.7
20260509060017 13 242 9.7 16.1 0.00 0.03 0.00 76 1004.0
20260509054515 13 232 6.4 14.5 0.00 0.03 0.00 76 1004.1
20260509053013 13 264 3.2 17.7 0.00 0.03 0.00 75 1004.0
20260509051511 13 269 6.4 17.7 0.00 0.03 0.00 74 1004.0
20260509050109 13 244 4.8 16.1 0.00 0.03 0.00 73 1004.1
20260509044508 13 205 3.2 14.5 0.00 0.03 0.03 72 1004.0
20260509043007 14 232 4.8 14.5 0.00 0.03 0.03 71 1004.1
20260509041507 14 218 8.0 22.5 0.00 0.03 0.03 69 1004.0
20260509040005 13 245 8.0 22.5 0.00 0.03 0.03 69 1004.0
20260509034505 13 209 1.6 12.9 0.00 0.03 0.03 69 1004.3
20260509033003 12 210 6.4 11.3 0.00 0.03 0.03 68 1004.2
20260509031502 12 208 3.2 8.0 0.00 0.03 0.03 67 1004.3
20260509030001 12 207 3.2 8.0 0.00 0.03 0.03 66 1004.4
20260509024501 12 133 0.0 3.2 0.00 0.03 0.03 65 1004.3
20260509023103 12 133 0.0 4.8 0.00 0.03 0.03 64 1004.5
20260509021600 13 131 1.6 4.8 0.00 0.03 0.03 64 1004.5
20260509020100 13 123 1.6 4.8 0.00 0.03 0.03 63 1004.6
20260509014602 13 132 1.6 8.0 0.00 0.03 0.03 62 1004.5
20260509013105 13 107 1.6 6.4 0.00 0.03 0.03 62 1004.5
20260509011558 14 130 4.8 12.9 0.00 0.03 0.03 62 1004.4
20260509010058 15 119 4.8 12.9 0.00 0.03 0.03 61 1004.4
20260509004601 15 141 1.6 9.7 0.00 0.03 0.03 59 1004.3
20260509003055 15 136 3.2 8.0 0.00 0.03 0.03 58 1004.4
20260509001554 15 129 4.8 9.7 0.00 0.03 0.03 58 1004.5
20260509000055 15 109 4.8 9.7 0.00 0.03 0.03 57 1004.6
20260508234552 16 123 4.8 9.7 0.00 0.03 0.03 56 1004.7